| time (UTC) | temp C | wind direction | speed KPH | gust KPH | rain 1hr cm | rain 24hr cm | rain mn cm | humidity % | barometer mb |
| 20260504034558 | 8 | 0 | 0.0 | 0.0 | 0.00 | 0.00 | 0.00 | 82 | 1018.2 |
| 20260504033109 | 9 | 0 | 0.0 | 0.0 | 0.00 | 0.00 | 0.00 | 81 | 1018.4 |
| 20260504031559 | 10 | 0 | 0.0 | 0.0 | 0.00 | 0.00 | 0.00 | 79 | 1018.3 |
| 20260504030114 | 10 | 0 | 0.0 | 0.0 | 0.00 | 0.00 | 0.00 | 76 | 1018.1 |
| 20260504024557 | 10 | 0 | 0.0 | 0.0 | 0.00 | 0.00 | 0.00 | 75 | 1018.3 |
| 20260504023058 | 11 | 0 | 0.0 | 0.0 | 0.00 | 0.00 | 0.00 | 74 | 1018.0 |
| 20260504021558 | 11 | 0 | 0.0 | 0.0 | 0.00 | 0.00 | 0.00 | 72 | 1017.8 |
| 20260504020106 | 12 | 0 | 0.0 | 0.0 | 0.00 | 0.00 | 0.00 | 70 | 1017.5 |
| 20260504014605 | 12 | 0 | 0.0 | 0.0 | 0.00 | 0.00 | 0.00 | 69 | 1017.4 |
| 20260504013057 | 13 | 0 | 0.0 | 1.6 | 0.00 | 0.00 | 0.00 | 67 | 1017.1 |
| 20260504011558 | 14 | 0 | 0.0 | 3.2 | 0.00 | 0.00 | 0.00 | 61 | 1017.0 |
| 20260504004559 | 15 | 0 | 0.0 | 3.2 | 0.00 | 0.00 | 0.00 | 61 | 1016.8 |
| 20260504003101 | 16 | 174 | 0.0 | 3.2 | 0.00 | 0.00 | 0.00 | 54 | 1016.6 |
| 20260504001601 | 17 | 0 | 0.0 | 3.2 | 0.00 | 0.00 | 0.00 | 53 | 1016.7 |
| 20260503234558 | 18 | 161 | 0.0 | 6.4 | 0.00 | 0.00 | 0.00 | 45 | 1016.5 |
| 20260503233100 | 19 | 171 | 1.6 | 8.0 | 0.00 | 0.00 | 0.00 | 42 | 1016.5 |
| 20260503231556 | 19 | 191 | 1.6 | 12.9 | 0.00 | 0.00 | 0.00 | 40 | 1016.5 |
| 20260503230111 | 20 | 0 | 1.6 | 11.3 | 0.00 | 0.00 | 0.00 | 39 | 1016.5 |
| 20260503224556 | 20 | 176 | 3.2 | 9.7 | 0.00 | 0.00 | 0.00 | 38 | 1016.4 |
| 20260503223112 | 20 | 156 | 3.2 | 14.5 | 0.00 | 0.00 | 0.00 | 37 | 1016.5 |
| 20260503221558 | 20 | 178 | 1.6 | 11.3 | 0.00 | 0.00 | 0.00 | 36 | 1016.5 |
| 20260503220056 | 20 | 138 | 3.2 | 14.5 | 0.00 | 0.00 | 0.00 | 35 | 1016.5 |
| 20260503214600 | 20 | 180 | 1.6 | 12.9 | 0.00 | 0.00 | 0.00 | 36 | 1016.5 |
| 20260503213058 | 20 | 273 | 3.2 | 12.9 | 0.00 | 0.00 | 0.00 | 37 | 1016.7 |
| 20260503211602 | 20 | 157 | 3.2 | 16.1 | 0.00 | 0.00 | 0.00 | 36 | 1016.8 |
| 20260503210101 | 20 | 142 | 1.6 | 11.3 | 0.00 | 0.00 | 0.00 | 36 | 1017.0 |
| 20260503204600 | 20 | 188 | 3.2 | 16.1 | 0.00 | 0.00 | 0.00 | 35 | 1017.1 |
| 20260503203102 | 20 | 221 | 6.4 | 19.3 | 0.00 | 0.00 | 0.00 | 38 | 1017.3 |
| 20260503201557 | 20 | 136 | 3.2 | 16.1 | 0.00 | 0.00 | 0.00 | 38 | 1017.7 |
| 20260503200057 | 20 | 134 | 4.8 | 16.1 | 0.00 | 0.00 | 0.00 | 40 | 1017.9 |
| 20260503194622 | 20 | 148 | 4.8 | 14.5 | 0.00 | 0.00 | 0.00 | 40 | 1018.3 |
| 20260503193058 | 19 | 153 | 3.2 | 14.5 | 0.00 | 0.00 | 0.00 | 41 | 1018.5 |
| 20260503191608 | 20 | 190 | 4.8 | 12.9 | 0.00 | 0.00 | 0.00 | 42 | 1018.8 |
| 20260503190059 | 19 | 129 | 4.8 | 14.5 | 0.00 | 0.00 | 0.00 | 45 | 1018.9 |
| 20260503184557 | 19 | 153 | 4.8 | 16.1 | 0.00 | 0.00 | 0.00 | 44 | 1019.2 |
| 20260503183103 | 18 | 153 | 3.2 | 12.9 | 0.00 | 0.00 | 0.00 | 44 | 1019.3 |
| 20260503181606 | 18 | 148 | 3.2 | 17.7 | 0.00 | 0.00 | 0.00 | 42 | 1019.5 |
| 20260503180058 | 18 | 182 | 3.2 | 17.7 | 0.00 | 0.00 | 0.00 | 46 | 1019.6 |
| 20260503174616 | 18 | 153 | 3.2 | 9.7 | 0.00 | 0.00 | 0.00 | 42 | 1019.8 |
| 20260503173107 | 17 | 169 | 3.2 | 14.5 | 0.00 | 0.00 | 0.00 | 44 | 1019.9 |
| 20260503171559 | 17 | 174 | 4.8 | 14.5 | 0.00 | 0.00 | 0.00 | 45 | 1020.3 |
| 20260503170110 | 16 | 215 | 4.8 | 12.9 | 0.00 | 0.00 | 0.00 | 45 | 1020.4 |
| 20260503120112 | 4 | 0 | 0.0 | 0.0 | 0.00 | 0.00 | 0.00 | 92 | 1021.1 |
| 20260503081557 | 3 | 0 | 0.0 | 1.6 | 0.00 | 0.00 | 0.00 | 90 | 1018.8 |
| 20260503071600 | 4 | 309 | 0.0 | 3.2 | 0.00 | 0.00 | 0.00 | 88 | 1018.1 |
| 20260503054559 | 5 | 0 | 1.6 | 4.8 | 0.00 | 0.00 | 0.00 | 84 | 1017.9 |
| 20260503053058 | 6 | 320 | 0.0 | 4.8 | 0.00 | 0.00 | 0.00 | 85 | 1017.9 |
| 20260503051603 | 6 | 321 | 0.0 | 1.6 | 0.00 | 0.00 | 0.00 | 84 | 1017.9 |
| 20260503050056 | 6 | 0 | 0.0 | 3.2 | 0.00 | 0.00 | 0.00 | 83 | 1018.0 |
| 20260503044615 | 6 | 0 | 0.0 | 0.0 | 0.00 | 0.00 | 0.00 | 84 | 1017.8 |
| 20260503043108 | 6 | 0 | 0.0 | 0.0 | 0.00 | 0.00 | 0.00 | 83 | 1017.7 |
| 20260503041613 | 6 | 0 | 0.0 | 0.0 | 0.00 | 0.00 | 0.00 | 80 | 1017.7 |